カタログに戻る

FENGYUN 1C DEB

運用中SSO
NORAD 38827·DEBRIS·🇨🇳 China

打ち上げ May 10, 1999 から Taiyuan Satellite Launch Center

Loading…

次のパス (今後24時間)

TLE

経年Source: Space-Track

元期: Sep 3, 2026, 06:48 UTC

1 38827U 99025EVT 26246.28373734  .00000888  00000-0  26006-3 0  9991
2 38827  98.3696 266.0266 0212491 245.0207 112.8773 14.34190708648507

AllMySatでFENGYUN 1C DEBをリアルタイム追跡

Download on the App Store